Weather History for Houston, TX

Change the Weather History Date:

Sunday, January 20, 2013

  Actual Average Record
Temperature  
Mean Temperature 56 °F 53 °F  
Max Temperature 69 °F 63 °F 81 °F (2012)
Min Temperature 43 °F 43 °F 20 °F (1985)
Degree Days  
Heating Degree Days 9 12  
Month to date heating degree days 273 258  
Since 1 July heating degree days 697 797  
Growing Degree Days 6 (Base 50)    
Moisture  
Dew Point 48 °F    
Average Humidity 72    
Maximum Humidity 100    
Minimum Humidity 44    
Precipitation  
Precipitation 0.00 in 0.11 in 1.83 in (1958)
Month to date precipitation 3.10 2.14  
Year to date precipitation 3.10 2.14  
Sea Level Pressure  
Sea Level Pressure 30.23 in    
Wind  
Wind Speed 1 mph (ESE)    
Max Wind Speed 14 mph    
Max Gust Speed 16 mph    
Visibility 4 miles    
Events Fog    
T = Trace of Precipitation, MM = Missing Value Source: NWS Daily Summary

Daily Weather History Graph

Daily Weather History Graph

Search for Another Location

Airport:

Trip Planner

Search our weather history database for the weather conditions in past years. The results will help you decide how hot, cold, wet, or windy it might be!

Date:

Astronomy

Jan. 20, 2013 Rise Set
Actual Time 7:15 AM CST 5:48 PM CST
Civil Twilight 6:50 AM CST 6:14 PM CST
Nautical Twilight 6:21 AM CST 6:43 PM CST
Astronomical Twilight 5:52 AM CST 7:12 PM CST
Moon 12:49 PM CST (1/20) 1:51 AM CST (1/20)
Length of Visible Light 11h 24m
Length of Day
10h 33m
Waxing Gibbous, 66% of the Moon is Illuminated
Jan 20
Waxing Gibbous
Jan 26
Full
Feb 3
Last Quarter
Feb 10
New
Feb 17
First Quarter

Hourly Weather History & Observations

Time (CST) Temp. Windchill Dew Point Humidity Pressure Visibility Wind Dir Wind Speed Gust Speed Precip Events Conditions
12:37 AM 48.2 °F - 46.4 °F 93% 30.25 in 6.0 mi Calm Calm - N/A   Scattered Clouds
12:53 AM 48.0 °F - 46.9 °F 96% 30.26 in 2.0 mi Calm Calm - N/A   Scattered Clouds
12:57 AM 46.4 °F - 46.4 °F 100% 30.24 in 1.0 mi Calm Calm - N/A   Mist
1:01 AM 48.2 °F - 46.4 °F 93% 30.24 in 0.2 mi Calm Calm - N/A Fog Fog
1:53 AM 46.0 °F - 45.0 °F 96% 30.25 in 0.8 mi Calm Calm - N/A   Scattered Clouds
2:04 AM 46.4 °F 45.2 °F 44.6 °F 93% 30.24 in 1.8 mi East 3.5 mph - N/A   Scattered Clouds
2:14 AM 46.4 °F - 44.6 °F 93% 30.24 in 3.0 mi Calm Calm - N/A   Partly Cloudy
2:53 AM 46.0 °F - 43.0 °F 89% 30.25 in 1.5 mi Calm Calm - N/A   Scattered Clouds
3:05 AM 44.6 °F - 44.6 °F 100% 30.24 in 1.0 mi Calm Calm - N/A   Mist
3:10 AM 44.6 °F - 44.6 °F 100% 30.23 in 0.2 mi Calm Calm - N/A Fog Fog
3:17 AM 44.6 °F - 44.6 °F 100% 30.23 in 0.2 mi Calm Calm - N/A Fog Fog
3:53 AM 45.0 °F - 43.0 °F 93% 30.24 in 0.2 mi Calm Calm - N/A Fog Fog
4:53 AM 45.0 °F - 44.1 °F 97% 30.23 in 0.2 mi Calm Calm - N/A Fog Fog
5:53 AM 46.0 °F - 45.0 °F 96% 30.23 in 0.2 mi Calm Calm - N/A Fog Fog
6:53 AM 46.9 °F - 46.0 °F 97% 30.24 in 0.2 mi Calm Calm - N/A Fog Fog
7:22 AM 46.4 °F - 46.4 °F 100% 30.24 in 0.1 mi Calm Calm - N/A Fog Fog
7:53 AM 46.9 °F - 46.9 °F 100% 30.26 in 0.1 mi Calm Calm - N/A Fog Fog
8:53 AM 48.9 °F - 48.9 °F 100% 30.28 in 0.1 mi Calm Calm - N/A Fog Fog
9:15 AM 50.0 °F - 50.0 °F 100% 30.27 in 0.2 mi Calm Calm - N/A Fog Fog
9:53 AM 53.1 °F - 53.1 °F 100% 30.30 in 0.5 mi Calm Calm - N/A Fog Fog
10:04 AM 55.4 °F - 53.6 °F 94% 30.28 in 1.0 mi Calm Calm - N/A   Mostly Cloudy
10:10 AM 55.4 °F - 53.6 °F 94% 30.28 in 3.0 mi Calm Calm - N/A   Mostly Cloudy
10:53 AM 63.0 °F - 55.0 °F 75% 30.29 in 10.0 mi Calm Calm - N/A   Scattered Clouds
11:53 AM 66.0 °F - 48.9 °F 54% 30.26 in 10.0 mi Calm Calm - N/A   Mostly Cloudy
12:53 PM 69.1 °F - 48.0 °F 47% 30.21 in 10.0 mi North 4.6 mph - N/A   Mostly Cloudy
1:53 PM 68.0 °F - 46.9 °F 47% 30.18 in 10.0 mi Calm Calm - N/A   Mostly Cloudy
2:53 PM 68.0 °F - 46.9 °F 47% 30.15 in 10.0 mi SE 3.5 mph - N/A   Mostly Cloudy
3:53 PM 68.0 °F - 50.0 °F 52% 30.15 in 10.0 mi ESE 5.8 mph - N/A   Mostly Cloudy
4:53 PM 64.9 °F - 51.1 °F 61% 30.15 in 10.0 mi ESE 8.1 mph - N/A   Mostly Cloudy
5:53 PM 61.0 °F - 50.0 °F 67% 30.16 in 10.0 mi SSE 4.6 mph - N/A   Mostly Cloudy
6:53 PM 57.9 °F - 48.9 °F 72% 30.17 in 10.0 mi SE 4.6 mph - N/A   Mostly Cloudy
7:53 PM 57.0 °F - 50.0 °F 77% 30.17 in 10.0 mi SE 4.6 mph - N/A   Mostly Cloudy
8:53 PM 54.0 °F - 48.9 °F 83% 30.19 in 10.0 mi SSE 4.6 mph - N/A   Scattered Clouds
9:53 PM 54.0 °F - 50.0 °F 86% 30.18 in 10.0 mi Calm Calm - N/A   Scattered Clouds
10:53 PM 51.1 °F - 48.0 °F 89% 30.19 in 10.0 mi Calm Calm - N/A   Scattered Clouds
11:53 PM 52.0 °F - 48.9 °F 89% 30.18 in 10.0 mi SE 3.5 mph - N/A   Scattered Clouds